Weather reports worldwide

Advertisment
Aachen-Orsbach, Germany (10505): temperature & dewpoint: 09.08.2020 22:00:00 - 15.08.2020 22:00:00 (CEST)Aachen-Orsbach, Germany (10505): temperature 5cm & temperature -5cm: 09.08.2020 22:00:00 - 15.08.2020 22:00:00 (CEST)Aachen-Orsbach, Germany (10505): temperature -20cm & temperature -100cm: 09.08.2020 22:00:00 - 15.08.2020 22:00:00 (CEST)Aachen-Orsbach, Germany (10505): wind speed & gusts: 09.08.2020 22:00:00 - 15.08.2020 22:00:00 (CEST)Aachen-Orsbach, Germany (10505): wind direction: 09.08.2020 22:00:00 - 15.08.2020 22:00:00 (CEST)Aachen-Orsbach, Germany (10505): reduced air pressure: 09.08.2020 22:00:00 - 15.08.2020 22:00:00 (CEST)Aachen-Orsbach, Germany (10505): visibility: 09.08.2020 22:00:00 - 15.08.2020 22:00:00 (CEST)Aachen-Orsbach, Germany (10505): sunshine duration: 09.08.2020 22:00:00 - 15.08.2020 22:00:00 (CEST)Aachen-Orsbach, Germany (10505): precipitation: 09.08.2020 22:00:00 - 15.08.2020 22:00:00 (CEST)
Date & Time tt [°C] td [°C] tt 5cm [°C] tt -5cm [°C] tt -20cm [°C] tt -100cm [°C] ff [km/h] ff [kn] fx [km/h] fx [kn] dd ppp [hPa] vv [km] sd [min] rr [mm]
15.08.2020 22:00:00 20,0 18,3 18,6 22,0 23,7 19,2 7 4 16 9 ENE 1013,9 20 0 0,0
15.08.2020 21:00:00 20,6 18,8 19,8 22,8 23,8 19,1 14 8 18 10 E 1013,3 23 0 0,0
15.08.2020 20:00:00 20,7 18,3 19,9 23,6 23,9 19,1 13 7 17 9 ESE 1013,4 23 21 0,3
15.08.2020 19:00:00 19,9 18,5 19,8 24,2 23,8 19,1 16 9 33 18 E 1014,2 4,1 0 11,2
15.08.2020 18:00:00 21,9 18,0 21,5 26,6 23,6 19,1 24 13 32 17 ENE 1014,1 13 0 0,0
15.08.2020 17:00:00 24,4 17,4 28,1 27,3 23,5 19,1 10 5 16 9 N 1013,9 18 12 0,0
15.08.2020 16:00:00 23,3 17,9 24,2 26,1 23,3 19,1 3 2 9 5 SE 1014,3 17 0 0,0
15.08.2020 15:00:00 24,1 17,9 28,7 26,0 23,2 19,1 4 2 10 5 ENE 1014,6 13 2 0,0
15.08.2020 14:00:00 22,0 18,6 22,3 24,7 23,1 19,1 6 3 9 5 ESE 1015,1 9 0 0,1
15.08.2020 13:00:00 22,6 17,7 23,6 25,4 22,9 19,1 5 3 10 6 NNE 1015,0 13 0 0,0
15.08.2020 12:00:00 22,6 17,4 25,2 25,4 22,8 19,1 3 2 10 5 ESE 1015,0 13 7 0,0
15.08.2020 11:00:00 21,4 17,6 26,1 23,6 22,8 19,1 4 2 7 4 ENE 1015,3 11 0 0,0
15.08.2020 10:00:00 20,2 17,4 22,7 22,1 22,9 19,1 3 2 7 4 SSE 1015,2 14 1 0,0
15.08.2020 09:00:00 19,0 17,3 19,9 20,9 23,0 19,1 6 4 9 5 SW 1015,4 10 0 0,0
15.08.2020 08:00:00 18,4 17,1 18,8 20,5 23,2 19,1 3 1 10 5 W 1015,2 9 0 0,0
15.08.2020 07:00:00 17,8 17,0 17,5 20,4 23,4 19,1 8 4 11 6 WSW 1014,9 6 0 0,0
15.08.2020 06:00:00 17,2 16,6 17,0 20,5 23,6 19,1 6 4 10 5 W 1014,5 4,9 0 0,0
15.08.2020 05:00:00 17,8 16,7 16,4 20,7 23,9 19,1 6 3 11 6 WSW 1014,4 7 0 0,0
15.08.2020 04:00:00 18,8 17,4 16,4 21,1 24,1 19,1 5 3 8 4 SW 1014,5 12 0 0,0
15.08.2020 03:00:00 18,5 17,3 16,5 21,7 24,3 19,1 4 2 9 5 SW 1014,7 12 0 0,0
15.08.2020 02:00:00 19,3 17,5 17,7 22,3 24,5 19,1 3 2 7 4 SSE 1014,7 16 0 0,0
15.08.2020 01:00:00 20,5 17,6 18,6 23,0 24,7 19,1 6 3 10 5 NNW 1014,7 23 0 0,0
15.08.2020 00:00:00 21,0 17,7 19,7 23,9 24,9 19,1 4 2 7 4 W 1014,3 39 0 0,0
14.08.2020 23:00:00 21,9 17,0 21,4 24,3 25,0 19,1 0 0 14 7 N 1014,3 59 0 0,0
14.08.2020 22:00:00 22,3 16,9 20,5 25,0 25,1 19,1 6 3 11 6 W 1013,7 55 0 0,1
14.08.2020 21:00:00 22,7 17,2 20,7 26,3 25,1 19,1 9 5 12 7 SW 1013,1 24 13 0,0
14.08.2020 20:00:00 25,1 15,1 25,5 27,5 25,0 19,1 10 5 21 11 WNW 1012,5 62 30 0,0
14.08.2020 19:00:00 26,3 15,1 27,4 28,6 24,8 19,1 14 8 21 12 W 1012,1 65 35 0,0
14.08.2020 18:00:00 26,5 16,5 29,5 29,6 24,5 19,1 12 6 28 15 W 1012,0 62 32 0,0
14.08.2020 17:00:00 26,0 14,8 29,0 30,4 24,1 19,1 15 8 29 16 WSW 1012,1 75 36 0,0
14.08.2020 16:00:00 26,6 15,8 32,7 30,2 23,8 19,1 14 8 29 16 WSW 1012,3 75 35 0,0
14.08.2020 15:00:00 26,3 15,5 30,6 30,2 23,4 19,1 21 11 35 19 SSW 1012,6 75 41 0,0
14.08.2020 14:00:00 26,2 15,8 30,2 29,0 23,1 19,1 20 11 29 16 SSW 1012,9 67 47 0,0
14.08.2020 13:00:00 25,6 16,0 31,8 26,5 22,9 19,1 20 11 31 17 SSW 1013,0 63 22 0,0
14.08.2020 12:00:00 24,4 16,5 26,7 25,3 22,7 19,1 18 10 33 18 SW 1013,2 67 14 0,0
14.08.2020 11:00:00 24,1 16,4 29,0 24,0 22,7 19,1 21 11 35 19 SW 1013,1 51 50 0,0
14.08.2020 10:00:00 22,3 16,2 25,1 21,7 22,8 19,1 16 9 27 15 SW 1012,8 75 23 0,0
14.08.2020 09:00:00 21,2 15,1 21,7 20,5 23,0 19,1 9 5 20 11 SW 1013,1 67 0 0,0
14.08.2020 08:00:00 20,9 14,3 20,2 20,1 23,2 19,1 14 8 21 11 SSW 1013,1 70 0 0,0
14.08.2020 07:00:00 20,3 14,1 19,0 19,9 23,5 19,1 10 5 21 12 SW 1012,9 65 0 0,0
14.08.2020 06:00:00 20,0 13,4 18,2 20,3 23,7 19,1 13 7 21 11 SW 1012,6 75 0 0,0
14.08.2020 05:00:00 21,1 14,0 19,5 20,6 24,0 19,1 14 7 16 9 SSW 1012,3 75 0 0,0
14.08.2020 04:00:00 19,9 14,2 18,1 20,8 24,3 19,1 13 7 15 8 SSW 1012,6 72 0 0,0
14.08.2020 03:00:00 19,6 14,5 17,4 21,4 24,5 19,1 12 6 16 9 SSW 1012,9 65 0 0,0
14.08.2020 02:00:00 20,5 15,6 18,4 22,1 24,8 19,0 13 7 17 9 SSW 1012,9 53 0 0,0
14.08.2020 01:00:00 20,3 17,6 18,2 22,9 25,0 19,0 7 4 9 5 SW 1013,2 27 0 0,0
14.08.2020 00:00:00 22,3 18,0 19,7 23,6 25,2 19,0 4 2 10 6 NNW 1013,0 39 0 0,0
13.08.2020 23:00:00 21,7 17,9 19,7 24,5 25,4 19,0 8 5 12 6 E 1012,2 36 0 0,0
13.08.2020 22:00:00 23,7 17,8 21,7 25,7 25,4 19,0 8 4 13 7 SW 1011,9 55 0 0,0
13.08.2020 21:00:00 23,7 18,8 22,8 27,1 25,4 19,0 11 6 13 7 SSW 1011,6 41 14 0,0
13.08.2020 20:00:00 26,3 18,6 26,8 28,5 25,3 19,0 9 5 29 16 W 1011,0 46 40 0,0
13.08.2020 19:00:00 29,4 17,8 30,1 30,0 25,0 19,0 19 11 34 18 SSW 1010,5 54 46 0,0
13.08.2020 18:00:00 30,6 17,3 32,9 30,5 24,8 19,0 19 10 29 16 SSW 1010,5 70 60 0,0
13.08.2020 17:00:00 31,0 17,2 33,9 30,4 24,5 19,0 19 10 29 16 SW 1010,4 44 60 0,0
13.08.2020 16:00:00 30,7 18,0 33,5 29,9 24,1 19,0 19 10 30 16 SW 1010,7 50 35 0,0
13.08.2020 15:00:00 30,5 17,9 32,4 30,9 23,8 19,0 13 7 24 13 SW 1010,7 44 50 0,0
13.08.2020 14:00:00 30,0 17,7 35,5 29,7 23,4 19,0 7 4 14 8 W 1010,8 57 16 0,0
13.08.2020 13:00:00 29,6 16,8 34,9 29,0 23,0 19,0 8 4 14 8 SW 1010,9 66 58 0,0
13.08.2020 12:00:00 28,6 16,4 33,2 27,3 22,8 19,0 7 4 14 7 SSW 1011,3 51 60 0,0
13.08.2020 11:00:00 27,7 16,8 31,7 25,6 22,7 19,0 10 5 13 7 SW 1011,3 48 60 0,0
13.08.2020 10:00:00 26,7 17,5 29,1 23,6 22,7 19,0 6 4 11 6 SSE 1011,4 69 58 0,0
13.08.2020 09:00:00 23,7 18,6 25,2 21,3 22,8 19,0 8 4 18 10 SE 1011,6 44 44 0,0
13.08.2020 08:00:00 20,0 17,7 19,0 20,5 22,9 19,0 11 6 21 11 SE 1012,0 35 1 0,0
13.08.2020 07:00:00 19,2 18,0 18,2 20,5 23,1 19,0 9 5 16 9 E 1012,1 23 0 0,0
13.08.2020 06:00:00 19,6 17,9 18,7 20,7 23,2 19,0 10 5 15 8 N 1012,3 28 0 0,5
13.08.2020 05:00:00 19,9 17,0 18,8 20,8 23,4 19,0 4 2 10 6 W 1012,0 39 0 0,0
13.08.2020 04:00:00 21,3 16,9 19,5 20,9 23,6 18,9 6 3 10 5 E 1011,3 53 0 0,0
13.08.2020 03:00:00 20,7 16,5 18,6 21,1 23,8 18,9 7 4 10 5 ESE 1011,4 49 0 0,0
13.08.2020 02:00:00 22,5 16,3 20,8 21,3 24,0 18,9 11 6 29 16 E 1011,4 54 0 0,0
13.08.2020 01:00:00 24,5 15,6 22,7 21,6 24,2 18,9 22 12 37 20 S 1011,4 61 0 0,0
13.08.2020 00:00:00 24,1 15,7 22,5 22,0 24,4 18,9 16 9 27 14 S 1012,0 52 0 0,0
12.08.2020 23:00:00 23,3 17,1 22,0 22,3 24,6 18,9 16 9 29 16 SE 1012,5 56 0 0,0
12.08.2020 22:00:00 22,8 17,4 21,5 22,8 24,8 18,9 18 10 26 14 SE 1012,6 50 0 0,0
12.08.2020 21:00:00 22,1 18,3 21,0 23,5 25,0 18,9 16 9 25 13 ESE 1012,6 47 0 0,0
12.08.2020 20:00:00 21,9 19,2 21,5 24,0 25,2 18,9 15 8 24 13 ESE 1012,8 42 0 0,0
12.08.2020 19:00:00 21,3 18,6 20,9 24,5 25,3 18,9 17 9 30 16 ESE 1012,4 49 0 0,0
12.08.2020 18:00:00 21,3 18,1 20,4 25,6 25,3 18,9 10 5 34 18 SSE 1013,0 39 0 0,3
12.08.2020 17:00:00 20,2 17,0 19,2 29,2 24,9 18,9 31 17 72 39 E 1013,4 25 1 5,1
12.08.2020 16:00:00 29,9 17,1 32,9 33,0 24,5 18,9 21 12 31 17 ENE 1012,0 50 60 0,0
12.08.2020 15:00:00 30,7 19,1 34,9 32,0 24,1 18,9 13 7 22 12 NNE 1012,3 43 60 0,0
12.08.2020 14:00:00 30,4 18,5 34,9 30,4 23,7 18,8 10 5 19 10 ENE 1012,9 36 60 0,0
12.08.2020 13:00:00 29,9 17,9 34,6 28,6 23,5 18,8 10 5 19 10 E 1013,2 42 60 0,0
12.08.2020 12:00:00 28,2 18,1 32,5 26,4 23,4 18,8 11 6 23 12 ESE 1013,6 42 60 0,0
12.08.2020 11:00:00 25,8 17,7 28,9 24,2 23,4 18,8 16 9 36 20 ESE 1014,2 46 57 0,0
12.08.2020 10:00:00 24,4 16,7 26,0 22,8 23,5 18,8 23 12 35 19 ESE 1014,5 59 60 0,0
12.08.2020 09:00:00 22,7 17,5 23,6 21,4 23,6 18,8 17 9 24 13 ESE 1014,8 39 49 0,0
12.08.2020 08:00:00 19,5 17,5 19,0 20,6 23,8 18,8 11 6 14 7 E 1014,9 25 0 0,0
12.08.2020 07:00:00 19,8 17,2 18,8 20,7 24,1 18,8 12 6 22 12 E 1014,6 32 0 0,0
12.08.2020 06:00:00 19,9 17,1 19,0 21,0 24,3 18,8 18 10 24 13 E 1014,1 36 0 0,0
12.08.2020 05:00:00 19,9 17,1 19,2 21,2 24,5 18,8 14 8 18 10 E 1014,0 42 0 0,0
12.08.2020 04:00:00 20,9 16,1 19,8 21,3 24,8 18,8 13 7 29 15 ESE 1014,2 65 0 0,0
12.08.2020 03:00:00 20,9 16,2 19,5 21,7 25,0 18,8 22 12 31 17 ESE 1014,4 60 0 0,0
12.08.2020 02:00:00 20,8 16,4 18,5 22,3 25,3 18,8 26 14 32 17 ESE 1014,5 47 0 0,4
12.08.2020 01:00:00 20,4 16,7 19,0 22,8 25,5 18,8 20 11 54 29 ENE 1015,4 41 0 9,8
12.08.2020 00:00:00 20,7 16,5 18,7 24,2 25,7 18,7 22 12 32 17 NE 1015,8 3,5 0 2,0
11.08.2020 23:00:00 24,4 15,2 23,2 24,7 25,9 18,7 16 8 22 12 ENE 1014,6 59 0 0,0
11.08.2020 22:00:00 23,9 16,9 22,5 25,2 26,1 18,7 10 5 16 9 E 1014,0 52 0 0,0
11.08.2020 21:00:00 25,4 16,3 23,8 25,9 26,2 18,7 9 5 26 14 SE 1013,5 53 0 0,0
11.08.2020 20:00:00 25,5 17,9 24,5 26,8 26,3 18,7 22 12 34 19 SE 1013,5 52 0 0,0
11.08.2020 19:00:00 25,9 19,6 26,3 27,6 26,4 18,7 14 7 23 12 ESE 1013,1 36 9 0,0
11.08.2020 18:00:00 25,1 19,7 24,9 28,2 26,3 18,7 17 9 25 13 ESE 1013,3 32 0 0,0
11.08.2020 17:00:00 24,5 19,5 23,5 29,4 26,1 18,7 8 4 62 34 N 1014,0 38 0 1,8
11.08.2020 16:00:00 32,1 16,0 34,0 32,2 25,8 18,7 6 4 26 14 SSW 1012,8 44 17 0,0
11.08.2020 15:00:00 32,3 16,2 34,4 32,8 25,5 18,7 19 10 31 17 ENE 1013,2 38 42 0,0
11.08.2020 14:00:00 32,1 16,6 37,2 31,8 25,2 18,7 14 7 26 14 E 1013,5 34 44 0,0
11.08.2020 13:00:00 30,8 16,9 33,3 30,3 24,9 18,7 10 5 21 12 E 1013,9 37 18 0,0
11.08.2020 12:00:00 29,8 16,6 33,2 29,4 24,8 18,6 12 7 22 12 E 1014,0 38 42 0,0
11.08.2020 11:00:00 29,3 17,4 33,0 27,5 24,7 18,6 10 6 20 11 E 1014,0 41 56 0,0
11.08.2020 10:00:00 27,9 16,0 31,2 25,8 24,8 18,6 13 7 17 9 E 1014,0 57 42 0,0
11.08.2020 09:00:00 25,4 17,0 26,5 24,5 24,9 18,6 10 5 12 6 ESE 1014,2 42 57 0,0
11.08.2020 08:00:00 24,2 16,3 24,3 23,3 25,1 18,6 4 2 12 6 E 1013,9 45 36 0,0
11.08.2020 07:00:00 22,3 15,6 19,7 23,1 25,3 18,6 6 3 11 6 ESE 1014,0 44 0 0,0
11.08.2020 06:00:00 22,1 15,5 17,7 23,6 25,5 18,6 5 3 8 5 ESE 1014,0 40 0 0,0
11.08.2020 05:00:00 23,1 15,4 19,5 24,1 25,7 18,6 6 3 13 7 SW 1014,1 45 0 0,0
11.08.2020 04:00:00 24,5 15,2 22,4 24,5 25,9 18,6 9 5 16 9 WSW 1014,2 45 0 0,0
11.08.2020 03:00:00 22,1 16,4 21,1 24,7 26,1 18,6 13 7 22 12 S 1014,5 35 0 0,0
11.08.2020 02:00:00 22,6 16,5 19,7 25,2 26,3 18,6 9 5 14 8 E 1014,0 34 0 0,0
11.08.2020 01:00:00 24,8 16,8 22,3 25,8 26,5 18,6 12 7 15 8 E 1014,0 41 0 0,0
11.08.2020 00:00:00 23,7 16,5 19,9 26,5 26,7 18,5 9 5 14 8 E 1014,0 40 0 0,0
10.08.2020 23:00:00 25,4 16,7 22,2 27,5 26,8 18,5 10 6 16 9 ENE 1013,7 41 0 0,0
10.08.2020 22:00:00 28,0 15,9 25,7 28,6 26,8 18,5 8 5 16 8 NE 1013,2 43 0 0,0
10.08.2020 21:00:00 28,6 15,6 25,5 30,1 26,7 18,5 8 4 16 8 ENE 1012,9 52 28 0,0
10.08.2020 20:00:00 30,6 15,3 30,3 31,5 26,5 18,5 10 5 18 10 E 1012,2 54 60 0,0
10.08.2020 19:00:00 31,7 14,9 33,0 32,6 26,2 18,5 10 5 22 12 E 1011,9 56 60 0,0
10.08.2020 18:00:00 32,3 15,0 34,7 33,1 25,9 18,5 10 5 22 12 NE 1012,1 49 60 0,0
10.08.2020 17:00:00 32,7 15,0 36,7 32,6 25,6 18,5 14 8 22 12 NE 1012,5 41 45 0,0
10.08.2020 16:00:00 31,8 14,7 36,0 32,0 25,2 18,5 15 8 25 13 ENE 1012,9 74 12 0,0
10.08.2020 15:00:00 31,4 14,8 33,7 32,8 24,8 18,5 14 8 27 14 ENE 1013,1 46 50 0,0
10.08.2020 14:00:00 31,6 16,4 36,0 32,3 24,4 18,4 17 9 28 15 NE 1013,1 43 60 0,0
10.08.2020 13:00:00 30,9 16,7 36,4 31,0 24,0 18,4 14 8 23 12 ENE 1013,4 51 60 0,0
10.08.2020 12:00:00 30,7 16,2 35,9 28,9 23,8 18,4 12 7 24 13 ENE 1013,5 66 53 0,0
10.08.2020 11:00:00 30,1 14,5 34,5 26,9 23,7 18,4 13 7 21 11 E 1013,7 44 60 0,0
10.08.2020 10:00:00 27,4 16,4 30,4 24,6 23,7 18,4 11 6 19 10 ESE 1014,1 51 60 0,0
10.08.2020 09:00:00 25,2 15,7 26,9 22,6 23,9 18,4 11 6 16 9 SE 1014,2 55 60 0,0
10.08.2020 08:00:00 21,4 15,4 21,4 21,4 24,1 18,4 14 8 16 9 SE 1014,6 61 52 0,0
10.08.2020 07:00:00 18,8 14,8 17,3 21,2 24,3 18,4 14 7 17 9 ESE 1015,0 49 0 0,0
10.08.2020 06:00:00 19,6 15,1 17,2 21,5 24,5 18,4 8 5 12 7 ESE 1015,1 47 0 0,0
10.08.2020 05:00:00 19,4 15,5 15,7 21,9 24,7 18,4 8 4 13 7 E 1015,3 43 0 0,0
10.08.2020 04:00:00 19,6 15,5 17,3 22,3 24,9 18,3 10 5 20 11 ENE 1015,5 39 0 0,0
10.08.2020 03:00:00 20,8 14,7 18,9 22,7 25,1 18,3 11 6 26 14 ENE 1015,2 52 0 0,0
10.08.2020 02:00:00 23,6 13,9 20,8 22,9 25,4 18,3 16 9 24 13 S 1014,6 64 0 0,0
10.08.2020 01:00:00 20,3 15,5 17,3 23,4 25,6 18,3 10 5 16 9 ESE 1015,4 45 0 0,0
10.08.2020 00:00:00 21,2 15,2 18,5 23,9 25,8 18,3 10 5 21 12 E 1015,1 52 0 0,0
09.08.2020 23:00:00 22,8 15,2 21,0 24,5 26,0 18,3 19 10 27 14 SE 1015,1 65 0 0,0
09.08.2020 22:00:00 22,8 15,7 21,2 25,2 26,2 18,3 19 11 27 15 ESE 1015,4 59 0 0,0

tt = temperature
td = dewpoint
tt 5cm = temperature 5cm
tt -5cm = temperature -5cm
tt -20cm = temperature -20cm
tt -100cm = temperature -100cm
ff = wind speed
fx = gusts
dd = wind direction
ppp = reduced air pressure
vv = visibility
sd = sunshine duration
rr = precipitation

Next stations